FW7729 Weather Reports


Display with metric or nautical units.
time (UTC)temp
F
wind
direction
speed
MPH
gust
MPH
rain 1hr
in
rain 24hr
in
rain mn
in
humidity
%
barometer
mb
20260831014319 69 152 0.0 0.0 0.00 0.43 0.43 10 1018.9
20260831013745 69 150 0.0 0.0 0.00 0.43 0.43 10 1018.9
20260831012641 69 151 0.0 0.0 0.00 0.43 0.43 10 1018.8
20260831012107 69 150 0.0 0.0 0.00 0.43 0.43 10 1019.0
20260831011533 69 150 0.0 0.0 0.01 0.43 0.43 10 1018.8
20260831010959 69 150 0.0 0.0 0.01 0.43 0.43 10 1018.7
20260831010425 69 150 0.0 0.0 0.02 0.43 0.43 10 1018.6
20260831005851 69 150 0.0 0.0 0.06 0.43 0.43 10 1018.6
20260831004747 69 152 0.0 0.0 0.29 0.43 0.43 10 1018.4
20260831003643 69 150 0.0 0.0 0.43 0.43 0.43 10 1018.4
20260831003108 69 150 0.0 0.0 0.43 0.43 0.43 10 1018.5
20260831002004 70 149 0.0 0.0 0.43 0.43 0.43 10 1018.4
20260830235759 71 359 0.0 0.0 0.36 0.36 0.36 10 1019.2
20260830235226 72 345 1.0 0.0 0.26 0.26 0.26 10 1019.6
20260830234651 74 326 1.0 0.0 0.12 0.12 0.12 10 1019.9
20260830234117 75 281 1.0 0.0 0.02 0.02 0.02 96 1019.7
20260830231913 78 181 1.0 0.0 0.00 0.00 0.00 93 1018.2
20260830230809 79 177 0.0 0.0 0.00 0.00 0.00 93 1017.9
20260830230235 79 177 2.0 0.0 0.00 0.00 0.00 92 1018.2
20260830225701 79 192 0.0 0.0 0.00 0.00 0.00 92 1018.1
20260830225127 80 192 0.0 0.0 0.00 0.00 0.00 91 1018.1
20260830224553 80 192 1.0 0.0 0.00 0.00 0.00 90 1018.1
20260830224019 81 180 1.0 0.0 0.00 0.00 0.00 89 1018.1
20260830222915 82 180 0.0 0.0 0.00 0.00 0.00 87 1018.1
20260830222341 82 180 0.0 0.0 0.00 0.00 0.00 86 1017.9
20260830221807 83 180 1.0 0.0 0.00 0.00 0.00 86 1017.9
20260830220703 83 195 0.0 0.0 0.00 0.00 0.00 85 1017.6
20260830220129 83 195 1.0 0.0 0.00 0.00 0.00 85 1017.6
20260830215025 83 183 0.0 0.0 0.00 0.00 0.00 85 1017.5
20260830213351 83 184 0.0 0.0 0.00 0.00 0.00 84 1017.7
20260830212817 83 170 0.0 0.0 0.00 0.00 0.00 85 1017.7
20260830211712 83 170 0.0 0.0 0.00 0.00 0.00 84 1017.6
20260830210608 83 164 0.0 0.0 0.00 0.00 0.00 84 1017.6
20260830210034 83 164 1.0 0.0 0.00 0.00 0.00 84 1017.6
20260830204930 83 206 0.0 0.0 0.00 0.00 0.00 83 1017.7
20260830204356 84 206 0.0 0.0 0.00 0.00 0.00 83 1017.6
20260830203252 84 206 0.0 0.0 0.00 0.00 0.00 82 1017.8
20260830202718 84 181 1.0 0.0 0.00 0.00 0.00 82 1017.9
20260830201614 84 206 1.0 0.0 0.00 0.00 0.00 82 1018.0
20260830201040 84 206 1.0 0.0 0.00 0.00 0.00 82 1018.0
20260830200506 84 226 0.0 0.0 0.00 0.00 0.00 82 1017.9
20260830195402 84 203 0.0 0.0 0.00 0.00 0.00 83 1018.0
20260830194258 84 206 2.0 0.0 0.00 0.00 0.00 82 1018.1
20260830192623 84 250 1.0 0.0 0.00 0.00 0.00 82 1018.2
20260830192049 84 206 2.0 0.0 0.00 0.00 0.00 81 1018.2
20260830191515 84 203 1.0 0.0 0.00 0.00 0.00 82 1018.3
20260830185841 84 243 1.0 0.0 0.00 0.00 0.00 82 1018.7
20260830185307 83 224 1.0 0.0 0.00 0.00 0.00 82 1018.9
20260830184733 83 222 2.0 0.0 0.00 0.00 0.00 82 1019.0
20260830184159 83 214 1.0 0.0 0.00 0.00 0.00 82 1019.0
20260830183055 83 193 1.0 0.0 0.00 0.00 0.00 83 1019.2
20260830182521 83 168 1.0 0.0 0.00 0.00 0.00 85 1019.2
20260830181947 83 203 1.0 0.0 0.00 0.00 0.00 85 1019.3
20260830180313 82 165 2.0 0.0 0.00 0.00 0.00 87 1019.6
20260830175739 82 286 0.0 0.0 0.00 0.00 0.00 86 1019.8
20260830175205 82 264 2.0 0.0 0.00 0.00 0.00 87 1020.0
20260830174101 81 224 1.0 0.0 0.00 0.00 0.00 89 1020.1
20260830172427 79 193 0.0 0.0 0.00 0.00 0.00 92 1020.4
20260830171852 79 193 0.0 0.0 0.00 0.00 0.00 92 1020.4
20260830171318 79 193 0.0 0.0 0.00 0.00 0.00 91 1020.6
20260830170745 79 202 0.0 0.0 0.00 0.00 0.00 92 1020.6
20260830165110 79 281 1.0 0.0 0.00 0.00 0.00 90 1020.8
20260830164006 80 271 1.0 0.0 0.00 0.00 0.00 89 1020.7
20260830162902 80 229 2.0 0.0 0.00 0.00 0.00 89 1020.8
20260830162328 80 217 1.0 0.0 0.00 0.00 0.00 92 1020.8
20260830161754 79 216 1.0 0.0 0.00 0.00 0.00 91 1020.9
20260830161220 79 166 2.0 0.0 0.00 0.00 0.00 91 1020.9
20260830160646 79 220 1.0 0.0 0.00 0.00 0.00 92 1021.0
20260830155542 79 204 2.0 0.0 0.00 0.00 0.00 93 1021.1
20260830155008 78 266 2.0 0.0 0.00 0.00 0.00 93 1021.2
20260830154434 78 253 1.0 0.0 0.00 0.00 0.00 93 1021.1
20260830153330 77 210 1.0 0.0 0.00 0.00 0.00 96 1021.1
20260830152226 77 185 1.0 0.0 0.00 0.00 0.00 96 1021.2
20260830150021 75 228 1.0 0.0 0.00 0.00 0.00 10 1021.1
20260830145447 75 156 2.0 0.0 0.00 0.00 0.00 10 1021.1
20260830144343 74 285 0.0 0.0 0.00 0.00 0.00 10 1021.1
20260830143809 74 193 0.0 0.0 0.00 0.00 0.00 10 1021.3
20260830143235 74 164 0.0 0.0 0.00 0.00 0.00 10 1021.1
20260830142701 74 164 1.0 0.0 0.00 0.00 0.00 10 1021.1
20260830142127 73 168 1.0 0.0 0.00 0.00 0.00 10 1021.1
20260830141553 73 189 1.0 0.0 0.00 0.00 0.00 10 1021.2
20260830141019 73 189 0.0 0.0 0.00 0.00 0.00 10 1021.1
20260830135915 73 166 1.0 0.0 0.00 0.00 0.00 10 1021.3
20260830135341 73 162 0.0 0.0 0.00 0.00 0.00 10 1021.3
20260830134807 73 161 0.0 0.0 0.00 0.00 0.00 10 1021.4
20260830133133 72 159 1.0 0.0 0.00 0.00 0.00 10 1021.5
20260830132559 72 174 0.0 0.0 0.00 0.00 0.00 10 1021.5
20260830130355 72 162 0.0 0.0 0.00 0.00 0.00 10 1021.7
20260830125251 72 175 0.0 0.0 0.00 0.00 0.00 10 1021.9
20260830124716 72 175 1.0 0.0 0.00 0.00 0.00 10 1021.8
20260830124143 72 173 0.0 0.0 0.00 0.00 0.00 10 1021.7
20260830123608 72 173 0.0 0.0 0.00 0.00 0.00 10 1021.7
20260830123034 71 172 1.0 0.0 0.00 0.00 0.00 10 1021.9
20260830121930 71 172 0.0 0.0 0.00 0.00 0.00 10 1021.8
20260830121356 71 172 0.0 0.0 0.00 0.00 0.00 10 1021.9
20260830120252 71 166 1.0 0.0 0.00 0.00 0.00 10 1021.9
20260830115718 71 179 0.0 0.0 0.00 0.00 0.00 10 1021.7
20260830114614 71 182 0.0 0.0 0.00 0.00 0.00 10 1021.7
20260830114040 71 182 1.0 0.0 0.00 0.00 0.00 10 1021.8
20260830113506 71 165 0.0 0.0 0.00 0.00 0.00 10 1021.8
20260830112932 70 165 1.0 0.0 0.00 0.00 0.00 10 1021.9
20260830111828 70 149 0.0 0.0 0.00 0.00 0.00 10 1021.9
20260830111254 70 149 0.0 0.0 0.00 0.00 0.00 10 1022.0
20260830110720 70 145 0.0 0.0 0.00 0.00 0.00 10 1022.0
20260830110146 70 145 0.0 0.0 0.00 0.00 0.00 10 1022.1
20260830105041 70 172 0.0 0.0 0.00 0.00 0.00 10 1022.1
20260830103937 70 178 1.0 0.0 0.00 0.00 0.00 10 1021.9
20260830103403 70 181 0.0 0.0 0.00 0.00 0.00 10 1021.9
20260830102259 70 173 0.0 0.0 0.00 0.00 0.00 10 1021.8
20260830101725 71 173 0.0 0.0 0.00 0.00 0.00 10 1021.7
20260830101151 71 164 0.0 0.0 0.00 0.00 0.00 10 1021.7
20260830100617 71 164 0.0 0.0 0.00 0.00 0.00 10 1021.8
20260830095513 71 164 0.0 0.0 0.00 0.00 0.00 10 1021.7
20260830094409 71 164 0.0 0.0 0.00 0.00 0.00 10 1021.7
20260830093835 71 164 0.0 0.0 0.00 0.00 0.00 10 1021.7
20260830093301 71 163 0.0 0.0 0.00 0.00 0.00 10 1021.8
20260830092727 71 164 0.0 0.0 0.00 0.00 0.00 10 1021.7
20260830091623 71 164 0.0 0.0 0.00 0.00 0.00 10 1021.6
20260830091049 71 164 0.0 0.0 0.00 0.00 0.00 10 1021.6
20260830085945 71 164 0.0 0.0 0.00 0.00 0.00 10 1021.6
20260830084841 71 164 0.0 0.0 0.00 0.00 0.00 10 1021.5
20260830083737 71 161 0.0 0.0 0.00 0.00 0.00 10 1021.6
20260830083203 71 166 0.0 0.0 0.00 0.00 0.00 10 1021.6
20260830082629 71 166 0.0 0.0 0.00 0.00 0.00 10 1021.6
20260830082055 70 171 0.0 0.0 0.00 0.00 0.00 10 1021.6
20260830081521 71 171 0.0 0.0 0.00 0.00 0.00 10 1021.8
20260830080947 70 171 0.0 0.0 0.00 0.00 0.00 10 1021.8
20260830080413 70 173 0.0 0.0 0.00 0.00 0.00 10 1021.8
20260830075839 70 173 0.0 0.0 0.00 0.00 0.00 10 1021.7
20260830075306 70 173 0.0 0.0 0.00 0.00 0.00 10 1021.7
20260830074731 70 173 0.0 0.0 0.00 0.00 0.00 10 1021.7
20260830074157 70 173 0.0 0.0 0.00 0.00 0.00 10 1021.7
20260830073623 70 173 0.0 0.0 0.00 0.00 0.00 10 1021.8
20260830073049 70 173 0.0 0.0 0.00 0.00 0.00 10 1021.8
20260830072515 71 173 0.0 0.0 0.00 0.00 0.00 10 1021.9
20260830071940 71 173 0.0 0.0 0.00 0.00 0.00 10 1021.9
20260830071406 71 173 0.0 0.0 0.00 0.00 0.00 99 1021.9
20260830070302 71 173 0.0 0.0 0.00 0.00 0.00 99 1022.0
20260830065728 71 173 0.0 0.0 0.00 0.00 0.00 99 1022.1
20260830065154 71 173 0.0 0.0 0.00 0.00 0.00 98 1022.1
20260830064620 71 173 0.0 0.0 0.00 0.00 0.00 98 1022.1
20260830064046 71 173 0.0 0.0 0.00 0.00 0.00 97 1022.1
20260830063512 71 173 0.0 0.0 0.00 0.00 0.00 97 1022.0
20260830062938 71 173 0.0 0.0 0.00 0.00 0.00 96 1022.2
20260830061834 72 173 0.0 0.0 0.00 0.00 0.00 95 1022.2
20260830061300 72 171 0.0 0.0 0.00 0.00 0.00 95 1022.2
20260830060726 72 170 0.0 0.0 0.00 0.00 0.00 95 1022.2
20260830060152 71 167 0.0 0.0 0.00 0.00 0.00 95 1022.3
20260830055048 71 167 0.0 0.0 0.00 0.00 0.00 95 1022.6
20260830054514 71 167 0.0 0.0 0.00 0.00 0.00 95 1022.6
20260830053940 71 167 0.0 0.0 0.00 0.00 0.00 94 1022.6
20260830053406 71 167 0.0 0.0 0.00 0.00 0.00 94 1022.6
20260830052302 71 167 0.0 0.0 0.00 0.00 0.00 93 1022.5
20260830051158 72 167 0.0 0.0 0.00 0.00 0.00 93 1022.3
20260830044954 72 167 0.0 0.0 0.00 0.00 0.00 92 1022.2
20260830044420 72 167 0.0 0.0 0.00 0.00 0.00 92 1022.2
20260830043846 71 167 0.0 0.0 0.00 0.00 0.00 92 1022.3
20260830042211 71 167 0.0 0.0 0.00 0.00 0.00 92 1022.0
20260830041107 71 167 0.0 0.0 0.00 0.00 0.00 93 1022.2
20260830040533 71 167 0.0 0.0 0.00 0.00 0.00 93 1022.1
20260830034859 71 167 0.0 0.0 0.00 0.00 0.00 94 1022.1
20260830032655 70 167 0.0 0.0 0.00 0.00 0.00 95 1022.0
20260830032121 70 167 0.0 0.0 0.00 0.00 0.00 96 1022.0
20260830031547 70 167 0.0 0.0 0.00 0.00 0.00 96 1022.0
20260830031013 70 167 0.0 0.0 0.00 0.00 0.00 96 1022.1
20260830025339 70 167 0.0 0.0 0.00 0.00 0.00 96 1021.9
20260830024805 70 167 0.0 0.0 0.00 0.00 0.00 95 1021.9
20260830024231 70 167 0.0 0.0 0.00 0.00 0.00 95 1021.9
20260830023657 70 167 0.0 0.0 0.00 0.00 0.00 95 1022.0
20260830023123 70 167 0.0 0.0 0.00 0.00 0.00 94 1022.0
20260830015818 71 167 0.0 0.0 0.00 0.00 0.00 92 1022.1
20260830015244 72 167 0.0 0.0 0.00 0.00 0.00 92 1021.9